TimeEDT,TemperatureF,Dew PointF,Humidity,Sea Level PressureIn,VisibilityMPH,Wind Direction,Wind SpeedMPH,Gust SpeedMPH,PrecipitationIn,Events,Conditions,WindDirDegrees,DateUTC
12:15 AM,60.1,57.6,91,30.16,10.0,South,8.1,-,N/A,,Clear,180,2013-04-09 04:15:00
12:35 AM,60.1,57.6,91,30.16,10.0,South,6.9,-,N/A,,Clear,180,2013-04-09 04:35:00
12:55 AM,60.3,57.6,91,30.16,10.0,SSW,6.9,-,N/A,,Clear,210,2013-04-09 04:55:00
1:15 AM,60.1,57.4,91,30.16,10.0,SSW,8.1,-,N/A,,Clear,200,2013-04-09 05:15:00
1:35 AM,59.9,57.2,91,30.15,10.0,SSW,8.1,-,N/A,,Clear,200,2013-04-09 05:35:00
1:55 AM,60.1,57.2,90,30.15,10.0,South,8.1,-,N/A,,Clear,190,2013-04-09 05:55:00
2:15 AM,59.9,57.2,91,30.14,10.0,South,8.1,-,N/A,,Clear,190,2013-04-09 06:15:00
2:35 AM,59.7,57.2,91,30.14,10.0,SSW,8.1,-,N/A,,Clear,210,2013-04-09 06:35:00
2:55 AM,59.9,57.2,91,30.13,10.0,SSW,8.1,-,N/A,,Clear,210,2013-04-09 06:55:00
3:15 AM,59.9,57.2,91,30.13,10.0,SSW,8.1,-,N/A,,Clear,200,2013-04-09 07:15:00
3:35 AM,59.9,57.2,91,30.13,10.0,SSW,6.9,-,N/A,,Clear,210,2013-04-09 07:35:00
3:55 AM,59.2,56.8,92,30.13,10.0,SSW,6.9,-,N/A,,Clear,200,2013-04-09 07:55:00
4:15 AM,59.0,56.8,93,30.14,10.0,SSW,5.8,-,N/A,,Clear,200,2013-04-09 08:15:00
4:35 AM,59.2,57.0,93,30.14,10.0,South,5.8,-,N/A,,Clear,190,2013-04-09 08:35:00
4:55 AM,59.7,57.0,91,30.15,10.0,South,5.8,-,N/A,,Clear,190,2013-04-09 08:55:00
5:15 AM,59.2,56.8,92,30.15,10.0,SSW,5.8,-,N/A,,Clear,200,2013-04-09 09:15:00
5:35 AM,59.0,56.7,92,30.15,10.0,SSW,6.9,-,N/A,,Clear,200,2013-04-09 09:35:00
5:55 AM,58.5,56.7,94,30.16,10.0,SSW,5.8,-,N/A,,Clear,200,2013-04-09 09:55:00
6:15 AM,58.5,56.7,94,30.17,10.0,SSW,4.6,-,N/A,,Clear,200,2013-04-09 10:15:00
6:35 AM,58.8,56.8,93,30.17,10.0,SSW,5.8,-,N/A,,Clear,200,2013-04-09 10:35:00
6:55 AM,59.2,57.2,93,30.18,10.0,SSW,4.6,-,N/A,,Clear,200,2013-04-09 10:55:00
7:15 AM,59.9,57.4,91,30.19,10.0,SSW,5.8,-,N/A,,Clear,200,2013-04-09 11:15:00
7:35 AM,61.0,57.7,89,30.19,10.0,SSW,4.6,-,N/A,,Clear,200,2013-04-09 11:35:00
7:55 AM,61.7,58.1,88,30.19,10.0,SSW,5.8,-,N/A,,Clear,210,2013-04-09 11:55:00
8:15 AM,61.5,58.3,89,30.19,10.0,SSW,4.6,-,N/A,,Clear,210,2013-04-09 12:15:00
8:35 AM,64.2,59.4,84,30.19,10.0,SSW,5.8,-,N/A,,Clear,210,2013-04-09 12:35:00
8:55 AM,67.1,60.4,79,30.19,10.0,SW,10.4,-,N/A,,Clear,230,2013-04-09 12:55:00
9:15 AM,68.7,60.8,76,30.19,10.0,WSW,11.5,-,N/A,,Clear,240,2013-04-09 13:15:00
9:35 AM,70.2,61.3,74,30.19,10.0,WSW,13.8,-,N/A,,Clear,250,2013-04-09 13:35:00
9:55 AM,70.9,61.3,72,30.19,10.0,WSW,12.7,17.3,N/A,,Clear,250,2013-04-09 13:55:00
10:15 AM,71.8,61.2,69,30.19,10.0,WSW,11.5,18.4,N/A,,Clear,250,2013-04-09 14:15:00
10:35 AM,72.5,60.8,67,30.19,10.0,West,12.7,-,N/A,,Clear,260,2013-04-09 14:35:00
10:55 AM,73.6,60.8,64,30.19,10.0,WSW,11.5,-,N/A,,Clear,250,2013-04-09 14:55:00
11:15 AM,74.7,60.4,61,30.18,10.0,WSW,11.5,-,N/A,,Clear,240,2013-04-09 15:15:00
11:35 AM,74.8,60.4,61,30.18,10.0,WSW,9.2,-,N/A,,Clear,240,2013-04-09 15:35:00
11:55 AM,75.6,60.6,60,30.17,10.0,WSW,11.5,-,N/A,,Clear,240,2013-04-09 15:55:00
12:15 PM,76.8,60.4,57,30.16,10.0,WSW,10.4,16.1,N/A,,Clear,240,2013-04-09 16:15:00
12:35 PM,77.2,60.8,57,30.15,10.0,WSW,9.2,-,N/A,,Clear,250,2013-04-09 16:35:00
12:55 PM,77.9,60.4,55,30.14,10.0,WSW,10.4,-,N/A,,Clear,240,2013-04-09 16:55:00
1:15 PM,76.6,60.4,57,30.14,10.0,South,10.4,-,N/A,,Clear,170,2013-04-09 17:15:00
1:35 PM,76.3,61.0,59,30.14,10.0,South,8.1,-,N/A,,Clear,190,2013-04-09 17:35:00
1:55 PM,75.0,61.7,63,30.13,10.0,South,9.2,-,N/A,,Clear,180,2013-04-09 17:55:00
2:15 PM,75.0,61.9,64,30.13,10.0,South,12.7,-,N/A,,Clear,180,2013-04-09 18:15:00
2:35 PM,75.7,62.2,63,30.12,10.0,South,11.5,-,N/A,,Scattered Clouds,180,2013-04-09 18:35:00
2:55 PM,75.4,62.1,63,30.11,10.0,South,11.5,17.3,N/A,,Scattered Clouds,180,2013-04-09 18:55:00
3:15 PM,73.0,61.7,67,30.11,10.0,South,13.8,-,N/A,,Scattered Clouds,190,2013-04-09 19:15:00
3:35 PM,74.1,61.9,65,30.10,10.0,South,16.1,-,N/A,,Mostly Cloudy,190,2013-04-09 19:35:00
3:55 PM,73.9,62.2,67,30.10,10.0,South,16.1,21.9,N/A,,Mostly Cloudy,180,2013-04-09 19:55:00
4:15 PM,74.3,62.6,67,30.09,10.0,South,17.3,23.0,N/A,,Mostly Cloudy,180,2013-04-09 20:15:00
4:35 PM,74.7,62.6,66,30.08,10.0,South,18.4,-,N/A,,Mostly Cloudy,180,2013-04-09 20:35:00
4:55 PM,72.5,62.1,70,30.08,10.0,South,18.4,-,N/A,,Scattered Clouds,180,2013-04-09 20:55:00
5:15 PM,71.6,62.1,72,30.08,10.0,South,17.3,-,N/A,,Clear,190,2013-04-09 21:15:00
5:35 PM,72.9,62.6,70,30.08,10.0,SSW,16.1,-,N/A,,Clear,200,2013-04-09 21:35:00
5:55 PM,72.1,62.2,71,30.08,10.0,SSW,15.0,-,N/A,,Clear,210,2013-04-09 21:55:00
6:15 PM,72.1,62.1,70,30.08,10.0,SSW,13.8,-,N/A,,Clear,210,2013-04-09 22:15:00
6:35 PM,71.2,62.1,73,30.08,10.0,SSW,13.8,-,N/A,,Clear,210,2013-04-09 22:35:00
6:55 PM,69.8,61.9,76,30.08,10.0,SSW,11.5,-,N/A,,Clear,200,2013-04-09 22:55:00
7:15 PM,68.4,61.7,79,30.09,10.0,SSW,10.4,-,N/A,,Clear,200,2013-04-09 23:15:00
7:35 PM,68.2,61.7,80,30.09,10.0,South,10.4,-,N/A,,Clear,190,2013-04-09 23:35:00
7:55 PM,67.3,61.3,81,30.10,10.0,South,11.5,-,N/A,,Clear,180,2013-04-09 23:55:00
8:15 PM,66.7,61.3,83,30.10,10.0,South,11.5,-,N/A,,Clear,190,2013-04-10 00:15:00
8:35 PM,65.7,61.2,85,30.11,10.0,SSW,10.4,-,N/A,,Clear,200,2013-04-10 00:35:00
8:55 PM,66.2,61.2,84,30.11,10.0,SSW,10.4,-,N/A,,Clear,210,2013-04-10 00:55:00
9:15 PM,66.2,60.8,83,30.12,10.0,SW,10.4,-,N/A,,Clear,220,2013-04-10 01:15:00
9:35 PM,65.7,60.8,84,30.13,10.0,SSW,9.2,-,N/A,,Clear,210,2013-04-10 01:35:00
9:55 PM,65.3,60.4,84,30.13,10.0,South,8.1,-,N/A,,Clear,190,2013-04-10 01:55:00
10:15 PM,64.4,60.3,86,30.13,10.0,SSW,5.8,-,N/A,,Clear,200,2013-04-10 02:15:00
10:35 PM,64.6,60.1,85,30.13,10.0,SSW,8.1,-,N/A,,Clear,200,2013-04-10 02:35:00
10:55 PM,63.9,59.9,87,30.13,10.0,SSW,8.1,-,N/A,,Clear,210,2013-04-10 02:55:00
11:15 PM,64.4,60.1,86,30.12,10.0,SSW,8.1,-,N/A,,Clear,200,2013-04-10 03:15:00
11:35 PM,64.4,59.9,85,30.12,10.0,SSW,8.1,-,N/A,,Clear,200,2013-04-10 03:35:00
11:55 PM,64.2,59.9,86,30.11,10.0,SSW,8.1,-,N/A,,Clear,200,2013-04-10 03:55:00